Back to catalog

STARLINK-36310

AliveCommunicationsVLEO
NORAD 68244·PAYLOAD·🇺🇸 United States

Launched Mar 17, 2026 from Vandenberg Space Force Base

Loading…

Next Passes (next 24 hours)

TLE

FreshSource: CelesTrak SupGP

Epoch: Sep 14, 2026, 23:31 UTC

1 68244C 26054N   26257.98034722 -.00034001  00000+0 -10046-2 0  2577
2 68244  53.1577 127.6007 0001347  84.5819 301.7390 15.34405845    10

Track STARLINK-36310 in real time with AllMySat

Download on the App Store